When you browse on this site, cookies collect data to enhance your experience and personalize the content and advertising you see.
Visit our Privacy Policy to learn more. By continuing to use the site, you agree to this use of cookies and data.
  • In Denmark
  • List of Countries
  • For 7 days
  • Water Temperature
  • Satellite Maps
  • Weather Map
  • Weather Widgets
  • user-avatar
    Login

    Hourly Weather Balpyk

    Today, 18 December, Tuesday

    Time Temperature Precipitation Wind Pressure Humidity
    00:00 0°C° 0 mm 3 mps 714 mmHg 64%
    01:00 0°C° 0 mm 3 mps 714 mmHg 63%
    02:00 0°C° 0 mm 3 mps 713 mmHg 62%
    03:00 +1°C° 0 mm 3 mps 713 mmHg 62%
    04:00 +1°C° 0 mm 3 mps 713 mmHg 62%
    05:00 -1°C° 0 mm 3 mps 713 mmHg 64%
    06:00 -1°C° 0.2 mm 3 mps 713 mmHg 70%
    07:00 -1°C° 0.2 mm 3 mps 713 mmHg 77%
    08:00 -2°C° 0.2 mm 2 mps 713 mmHg 83%
    09:00 -1°C° 0.7 mm 2 mps 713 mmHg 85%
    10:00 0°C° 0.7 mm 3 mps 714 mmHg 86%
    11:00 +1°C° 0 mm 3 mps 714 mmHg 89%
    12:00 0°C° 1.2 mm 4 mps 714 mmHg 90%
    13:00 0°C° 1.2 mm 5 mps 715 mmHg 91%
    14:00 -2°C° 1.2 mm 6 mps 715 mmHg 92%
    15:00 -2°C° 0.3 mm 6 mps 716 mmHg 90%
    16:00 -2°C° 0.3 mm 5 mps 716 mmHg 88%
    17:00 -5°C° 0 mm 5 mps 716 mmHg 85%
    18:00 -5°C° 0 mm 4 mps 716 mmHg 83%
    19:00 -5°C° 0 mm 4 mps 716 mmHg 81%
    20:00 -7°C° 0 mm 4 mps 716 mmHg 79%
    21:00 -7°C° 0 mm 4 mps 716 mmHg 76%
    22:00 -7°C° 0 mm 4 mps 716 mmHg 74%
    23:00 -6°C° 0 mm 3 mps 716 mmHg 71%

    Tomorrow, 19 December, Wednesday

    Time Temperature Precipitation Wind Pressure Humidity
    00:00 -6°C° 0 mm 3 mps 716 mmHg 71%
    01:00 -6°C° 0 mm 3 mps 716 mmHg 70%
    02:00 -6°C° 0 mm 3 mps 716 mmHg 70%
    03:00 -6°C° 0 mm 3 mps 716 mmHg 70%
    04:00 -5°C° 0 mm 2 mps 716 mmHg 70%
    05:00 -5°C° 0 mm 2 mps 716 mmHg 71%
    06:00 -5°C° 0 mm 2 mps 716 mmHg 72%
    07:00 -5°C° 0 mm 2 mps 716 mmHg 73%
    08:00 -5°C° 0 mm 2 mps 717 mmHg 74%
    09:00 -4°C° 0 mm 2 mps 717 mmHg 74%
    10:00 -3°C° 0 mm 2 mps 717 mmHg 74%
    11:00 -2°C° 0 mm 2 mps 717 mmHg 74%
    12:00 -2°C° 0 mm 2 mps 717 mmHg 75%
    13:00 0°C° 0 mm 1 mps 717 mmHg 77%
    14:00 0°C° 0 mm 1 mps 717 mmHg 79%
    15:00 -1°C° 0 mm 1 mps 717 mmHg 79%
    16:00 -2°C° 0 mm 1 mps 717 mmHg 79%
    17:00 -3°C° 0 mm 1 mps 718 mmHg 79%
    18:00 -3°C° 0 mm 1 mps 718 mmHg 78%
    19:00 -3°C° 0 mm 1 mps 718 mmHg 76%
    20:00 -3°C° 0 mm 1 mps 718 mmHg 74%
    21:00 -3°C° 0 mm 1 mps 718 mmHg 73%
    22:00 -3°C° 0 mm 1 mps 719 mmHg 73%
    23:00 -3°C° 0 mm 1 mps 719 mmHg 72%

    Day after tomorrow, 20 December, Thursday

    Time Temperature Precipitation Wind Pressure Humidity
    00:00 -4°C° 0 mm 1 mps 719 mmHg 73%
    01:00 -4°C° 0 mm 1 mps 719 mmHg 74%
    02:00 -4°C° 0 mm 1 mps 720 mmHg 76%
    03:00 -4°C° 0 mm 1 mps 720 mmHg 77%
    04:00 -4°C° 0 mm 1 mps 720 mmHg 78%
    05:00 -4°C° 0 mm 1 mps 721 mmHg 79%
    06:00 -6°C° 0 mm 1 mps 721 mmHg 79%
    07:00 -6°C° 0 mm 1 mps 722 mmHg 80%
    08:00 -6°C° 0 mm 1 mps 722 mmHg 80%
    09:00 -4°C° 0 mm 1 mps 722 mmHg 80%
    10:00 -3°C° 0 mm 1 mps 723 mmHg 79%
    11:00 -2°C° 0 mm 1 mps 723 mmHg 79%
    12:00 -2°C° 0 mm 1 mps 723 mmHg 80%
    13:00 -4°C° 0 mm 2 mps 723 mmHg 81%
    14:00 -4°C° 0 mm 2 mps 723 mmHg 83%
    15:00 -3°C° 0 mm 1 mps 723 mmHg 83%
    16:00 -4°C° 0 mm 1 mps 723 mmHg 83%
    17:00 -6°C° 0 mm 1 mps 723 mmHg 83%
    18:00 -6°C° 0 mm 1 mps 724 mmHg 81%
    19:00 -7°C° 0 mm 1 mps 724 mmHg 79%
    20:00 -7°C° 0 mm 1 mps 724 mmHg 78%
    21:00 -7°C° 0 mm 1 mps 724 mmHg 78%
    22:00 -8°C° 0 mm 2 mps 724 mmHg 79%
    23:00 -8°C° 0 mm 2 mps 724 mmHg 79%

    21 December, Friday

    Time Temperature Precipitation Wind Pressure Humidity
    00:00 -9°C° 0 mm 2 mps 725 mmHg 80%
    01:00 -9°C° 0 mm 2 mps 725 mmHg 80%
    02:00 -10°C° 0 mm 3 mps 725 mmHg 81%
    03:00 -12°C° 0 mm 3 mps 725 mmHg 80%
    04:00 -12°C° 0 mm 3 mps 725 mmHg 79%
    05:00 -12°C° 0 mm 3 mps 725 mmHg 79%
    06:00 -12°C° 0 mm 3 mps 725 mmHg 77%
    07:00 -12°C° 0 mm 3 mps 725 mmHg 75%
    08:00 -12°C° 0 mm 3 mps 725 mmHg 73%
    09:00 -10°C° 0 mm 3 mps 724 mmHg 71%
    10:00 -8°C° 0 mm 2 mps 724 mmHg 69%
    11:00 -7°C° 0 mm 2 mps 724 mmHg 67%
    12:00 -7°C° 0 mm 2 mps 723 mmHg 68%
    13:00 -7°C° 0 mm 3 mps 723 mmHg 68%
    14:00 -7°C° 0 mm 3 mps 722 mmHg 69%
    15:00 -8°C° 0 mm 3 mps 722 mmHg 69%
    16:00 -8°C° 0 mm 3 mps 721 mmHg 68%
    17:00 -9°C° 0 mm 3 mps 721 mmHg 68%
    18:00 -9°C° 0 mm 3 mps 721 mmHg 67%
    19:00 -9°C° 0 mm 3 mps 720 mmHg 66%
    20:00 -9°C° 0 mm 3 mps 720 mmHg 64%
    21:00 -9°C° 0 mm 3 mps 719 mmHg 63%
    22:00 -9°C° 0 mm 3 mps 719 mmHg 63%
    23:00 -8°C° 0 mm 3 mps 718 mmHg 62%

    22 December, Saturday

    Time Temperature Precipitation Wind Pressure Humidity
    00:00 -8°C° 0 mm 3 mps 718 mmHg 60%
    01:00 -8°C° 0 mm 3 mps 717 mmHg 59%
    02:00 -8°C° 0 mm 3 mps 716 mmHg 58%
    03:00 -8°C° 0 mm 3 mps 716 mmHg 57%
    04:00 -8°C° 0 mm 3 mps 716 mmHg 56%
    05:00 -7°C° 0 mm 2 mps 715 mmHg 55%
    06:00 -7°C° 0 mm 2 mps 715 mmHg 54%
    07:00 -7°C° 0 mm 2 mps 715 mmHg 54%
    08:00 -7°C° 0 mm 2 mps 715 mmHg 53%
    09:00 -5°C° 0 mm 2 mps 715 mmHg 54%
    10:00 -4°C° 0 mm 2 mps 715 mmHg 55%
    11:00 -3°C° 0 mm 2 mps 715 mmHg 55%
    12:00 -2°C° 0 mm 2 mps 715 mmHg 56%
    13:00 -2°C° 0 mm 2 mps 714 mmHg 57%
    14:00 0°C° 0 mm 1 mps 714 mmHg 58%
    15:00 -3°C° 0 mm 2 mps 714 mmHg 57%
    16:00 -4°C° 0 mm 2 mps 714 mmHg 55%
    17:00 -4°C° 0 mm 2 mps 714 mmHg 53%
    18:00 -4°C° 0 mm 2 mps 714 mmHg 52%
    19:00 -4°C° 0 mm 2 mps 714 mmHg 51%
    20:00 -4°C° 0 mm 2 mps 714 mmHg 50%
    21:00 -4°C° 0 mm 2 mps 714 mmHg 51%
    22:00 -4°C° 0 mm 2 mps 714 mmHg 52%
    23:00 -3°C° 0 mm 2 mps 713 mmHg 53%

    23 December, Sunday

    Time Temperature Precipitation Wind Pressure Humidity
    00:00 -3°C° 0 mm 2 mps 713 mmHg 56%
    01:00 -2°C° 0 mm 2 mps 713 mmHg 59%
    02:00 -2°C° 0 mm 2 mps 713 mmHg 62%
    03:00 -2°C° 0.1 mm 2 mps 713 mmHg 65%
    04:00 -2°C° 0.1 mm 2 mps 713 mmHg 67%
    05:00 -2°C° 0.1 mm 2 mps 712 mmHg 69%
    06:00 -1°C° 0.1 mm 2 mps 712 mmHg 71%
    07:00 -1°C° 0.1 mm 2 mps 712 mmHg 72%
    08:00 -1°C° 0.1 mm 2 mps 712 mmHg 74%
    09:00 -1°C° 0.1 mm 2 mps 713 mmHg 77%
    10:00 -1°C° 0.1 mm 2 mps 713 mmHg 79%
    11:00 0°C° 0.1 mm 3 mps 713 mmHg 81%
    12:00 0°C° 0.3 mm 3 mps 712 mmHg 83%
    13:00 0°C° 0.3 mm 3 mps 712 mmHg 85%
    14:00 0°C° 0.3 mm 3 mps 712 mmHg 87%
    15:00 -1°C° 0.5 mm 3 mps 713 mmHg 89%
    16:00 -1°C° 0.5 mm 3 mps 713 mmHg 90%
    17:00 -1°C° 0.5 mm 3 mps 713 mmHg 92%
    18:00 -2°C° 0.2 mm 3 mps 714 mmHg 92%
    19:00 -4°C° 0.2 mm 3 mps 714 mmHg 92%
    20:00 -5°C° 0.2 mm 3 mps 715 mmHg 92%
    21:00 -4°C° 0.1 mm 2 mps 715 mmHg 91%
    22:00 -5°C° 0.1 mm 2 mps 715 mmHg 91%
    23:00 -5°C° 0.1 mm 2 mps 716 mmHg 91%
    Show more